Temp
12 12 11 10 10 10 10 10 10 9 9 8 8 7 7 6 6 5 5 4 4 5 5 4 5 5 4 4 5 5 5 5 4 4 4 4 5 7
11 11 11 10 10 11 10 10 10 9 8 8 8 7 6 5 5 4 4 3 3 4 3 4 4 4 4 4 4 4 4 4 4 4 4 5 5 7
10 10 10 10 10 10 10 10 10 9 9 7 7 6 5 5 4 3 3 3 3 3 3 3 3 3 3 3 3 3 3 4 4 4 4 4 5 7
10 10 10 10 10 10 10 10 9 9 8 8 5 4 3 3 3 2 2 3 3 3 3 3 3 3 3 3 2 3 3 4 4 4 3 4 6 6
10 10 9 9 10 10 10 10 9 9 8 6 5 4 3 3 2 2 2 2 2 2 2 2 2 2 3 2 2 3 3 3 4 4 3 5 6 7
9 9 8 9 9 9 9 9 9 8 6 6 4 3 2 2 1 1 2 2 2 2 2 1 1 2 1 1 2 2 3 3 3 4 4 4 6 6
8 7 7 7 8 8 8 8 7 7 6 5 3 2 2 2 1 1 2 2 2 2 2 2 1 1 1 1 2 2 3 3 3 4 4 4 5 6
7 7 7 7 7 7 8 7 8 7 6 5 4 2 2 1 1 1 1 2 1 1 1 1 1 1 1 1 2 2 2 2 3 3 4 4 4 5
6 6 6 7 7 7 7 7 7 7 6 4 3 1 1 2 1 1 1 1 1 -0 0 0 1 1 1 1 1 1 1 1 2 3 3 3 4 4
6 6 6 7 6 6 6 6 6 5 5 4 3 2 2 1 1 1 0 0 -1 -1 -0 0 1 1 1 1 1 1 1 1 1 2 2 3 3 4
6 6 6 6 6 6 6 5 5 5 3 2 2 2 1 1 0 -0 -0 -1 -1 -0 0 0 1 1 1 1 1 1 1 1 1 1 2 2 3 3
5 5 5 5 5 5 5 5 4 4 2 2 2 2 1 1 0 0 -0 -1 -0 0 1 0 1 1 1 1 1 1 1 1 1 1 1 2 2 2
3 3 4 4 4 4 4 4 4 1 1 1 1 1 1 1 1 1 -0 0 1 1 1 1 1 1 1 1 1 1 1 1 1 0 0 1 1 2
2 2 2 2 2 2 1 1 0 -1 -1 -0 0 0 0 0 1 0 -0 -0 1 1 -0 0 1 1 1 1 1 1 1 1 1 0 0 -0 -0 0
2 2 1 1 0 0 -0 -0 -1 -1 -1 -0 0 -0 -0 -1 -0 -0 -0 -0 1 0 -0 -0 0 1 1 1 1 0 0 0 0 0 0 -0 -0 -0
0 0 0 -0 -0 -0 -0 -1 -2 -2 -1 -0 -0 -1 -2 -1 -1 -1 -0 -0 -0 -0 -0 0 0 0 1 1 1 0 0 0 0 -0 -0 -0 -1 -1
-0 -0 -1 -1 -1 -1 -1 -1 -2 -2 -4 -2 -2 -2 -2 -2 -1 -1 -1 -1 -1 -1 -0 -0 -0 -0 0 0 0 -0 -0 -0 -1 -1 -1 -1 -1 -1
-1 -1 -1 -1 -2 -1 -1 -2 -2 -3 -4 -2 -3 -2 -2 -2 -2 -2 -2 -2 -1 -1 -1 -1 -1 -1 -1 -1 -1 -1 -1 -1 -1 -2 -2 -2 -2 -2
-2 -2 -2 -2 -2 -2 -2 -2 -2 -3 -5 -3 -3 -3 -2 -2 -3 -2 -2 -2 -2 -2 -2 -2 -2 -2 -1 -1 -1 -1 -1 -2 -2 -2 -2 -3 -3 -3
-2 -2 -3 -3 -2 -2 -2 -2 -2 -4 -5 -3 -4 -3 -3 -3 -3 -2 -2 -2 -2 -2 -2 -2 -2 -2 -2 -2 -2 -2 -2 -2 -3 -3 -3 -3 -4 -4
-2 -2 -3 -3 -2 -2 -2 -2 -2 -3 -5 -4 -3 -3 -3 -3 -3 -3 -3 -3 -3 -3 -2 -2 -2 -3 -4 -4 -3 -2 -3 -4 -4 -4 -4 -4 -4 -4
-3 -3 -3 -3 -3 -2 -2 -2 -2 -3 -4 -6 -4 -3 -3 -3 -3 -3 -3 -3 -2 -2 -2 -3 -4 -4 -3 -3 -3 -4 -4 -4 -5 -5 -5 -5 -5 -5
-3 -3 -3 -3 -3 -2 -2 -2 -2 -3 -3 -3 -5 -3 -3 -3 -3 -3 -3 -3 -3 -3 -3 -4 -4 -4 -4 -3 -4 -4 -4 -5 -5 -5 -5 -6 -6 -6
Height
1506 1505 1506 1510 1511 1512 1513 1515 1516 1517 1518 1517 1517 1517 1517 1516 1516 1515 1513 1512 1512 1512 1511 1511 1510 1509 1508 1507 1502 1504 1498 1495 1493 1490 1488 1488 1487 1487
1500 1500 1501 1503 1505 1506 1509 1509 1510 1513 1513 1513 1512 1512 1512 1513 1514 1513 1511 1510 1508 1509 1506 1506 1506 1505 1503 1500 1501 1496 1496 1490 1491 1487 1485 1485 1483 1481
1493 1495 1496 1500 1500 1501 1502 1504 1505 1506 1507 1509 1507 1508 1509 1508 1509 1509 1508 1507 1505 1504 1504 1502 1503 1502 1499 1496 1496 1493 1492 1488 1488 1483 1483 1481 1478 1475
1486 1488 1490 1494 1494 1496 1497 1498 1499 1500 1500 1501 1503 1501 1504 1504 1503 1503 1504 1504 1504 1503 1501 1499 1498 1497 1494 1494 1493 1487 1489 1485 1484 1482 1481 1479 1475 1473
1479 1481 1486 1487 1488 1491 1491 1491 1493 1492 1494 1495 1496 1496 1498 1497 1501 1500 1500 1500 1501 1500 1498 1496 1494 1491 1489 1492 1491 1486 1484 1482 1481 1481 1481 1477 1474 1473
1474 1475 1478 1480 1481 1485 1486 1486 1487 1486 1488 1488 1490 1490 1493 1493 1493 1496 1495 1494 1497 1495 1494 1495 1490 1490 1487 1487 1484 1486 1480 1480 1480 1479 1479 1477 1475 1473
1469 1471 1474 1475 1476 1478 1479 1479 1481 1482 1483 1482 1485 1484 1484 1485 1489 1489 1491 1491 1492 1492 1493 1489 1488 1486 1485 1483 1479 1481 1478 1478 1478 1478 1478 1478 1476 1475
1463 1466 1467 1470 1470 1471 1471 1471 1473 1473 1475 1475 1476 1478 1478 1479 1484 1484 1486 1484 1486 1488 1487 1487 1484 1480 1483 1485 1478 1478 1476 1476 1477 1477 1477 1478 1478 1476
1457 1460 1462 1462 1464 1466 1466 1464 1464 1466 1468 1469 1468 1472 1473 1472 1476 1479 1482 1482 1484 1484 1481 1483 1481 1481 1477 1482 1476 1475 1474 1475 1475 1476 1476 1477 1478 1478
1451 1452 1453 1454 1455 1459 1460 1458 1459 1457 1461 1461 1460 1465 1466 1470 1470 1473 1480 1480 1483 1475 1477 1482 1476 1479 1477 1478 1475 1474 1474 1475 1474 1475 1475 1476 1478 1479
1443 1443 1447 1448 1449 1448 1451 1455 1454 1451 1454 1455 1456 1459 1462 1463 1467 1470 1473 1470 1478 1474 1473 1480 1477 1476 1475 1474 1473 1473 1474 1474 1474 1474 1474 1475 1476 1478
1437 1435 1436 1439 1444 1440 1442 1444 1447 1449 1449 1448 1451 1453 1458 1457 1461 1463 1469 1466 1469 1467 1471 1475 1475 1475 1473 1471 1472 1472 1472 1473 1474 1474 1474 1474 1475 1476
1428 1428 1428 1433 1433 1435 1437 1435 1440 1443 1441 1444 1443 1448 1450 1456 1455 1456 1462 1461 1463 1463 1468 1473 1473 1472 1470 1469 1470 1471 1472 1473 1473 1474 1474 1475 1475 1476
1420 1419 1421 1424 1426 1429 1428 1430 1432 1433 1435 1438 1438 1443 1446 1448 1448 1451 1455 1456 1457 1461 1467 1470 1470 1470 1468 1468 1469 1470 1471 1472 1472 1473 1473 1474 1475 1476
1412 1412 1413 1416 1418 1420 1421 1424 1427 1426 1429 1431 1434 1438 1442 1444 1444 1446 1449 1450 1454 1458 1464 1466 1467 1467 1467 1467 1469 1470 1471 1471 1471 1472 1472 1473 1474 1475
1404 1405 1405 1408 1408 1411 1413 1414 1419 1421 1423 1427 1430 1434 1435 1436 1439 1441 1442 1447 1451 1457 1460 1461 1462 1464 1465 1466 1467 1469 1469 1470 1470 1470 1471 1471 1472 1473
1397 1396 1396 1399 1399 1401 1403 1405 1413 1416 1416 1420 1423 1425 1428 1431 1434 1435 1440 1444 1448 1453 1455 1457 1458 1460 1462 1464 1465 1467 1467 1468 1468 1469 1469 1470 1471 1472
1388 1387 1386 1390 1392 1393 1395 1400 1403 1408 1409 1414 1418 1419 1422 1425 1429 1432 1436 1441 1445 1448 1450 1453 1455 1457 1459 1461 1463 1464 1465 1466 1466 1466 1467 1468 1468 1469
1378 1378 1377 1380 1384 1385 1388 1391 1393 1400 1403 1408 1412 1414 1417 1420 1424 1427 1432 1436 1439 1442 1445 1448 1451 1454 1455 1457 1459 1460 1461 1462 1463 1464 1464 1465 1465 1466
1369 1369 1369 1372 1374 1378 1381 1385 1389 1394 1396 1401 1405 1409 1412 1415 1419 1422 1427 1430 1434 1437 1440 1443 1446 1449 1452 1454 1454 1457 1457 1458 1459 1460 1460 1460 1461 1461
1362 1362 1363 1365 1367 1370 1373 1378 1382 1386 1391 1396 1400 1403 1407 1410 1414 1418 1422 1426 1429 1431 1434 1438 1443 1446 1447 1448 1450 1452 1454 1454 1455 1456 1456 1456 1456 1457
1357 1357 1358 1358 1361 1364 1368 1372 1376 1380 1384 1389 1394 1397 1401 1405 1408 1413 1417 1420 1423 1427 1430 1435 1438 1439 1442 1444 1446 1448 1449 1450 1451 1451 1451 1452 1452 1453
1349 1350 1351 1352 1355 1360 1363 1367 1371 1374 1378 1381 1385 1391 1395 1399 1403 1408 1412 1415 1419 1423 1426 1429 1433 1435 1437 1439 1441 1443 1444 1446 1446 1446 1447 1447 1447 1447
Wind_Speed
28 24 22 24 24 25 24 21 19 18 19 21 21 21 19 17 15 14 13 13 13 15 16 16 16 18 18 19 19 23 20 18 15 12 12 14 17 19
23 22 22 23 24 24 22 20 20 20 22 18 19 19 17 17 17 18 16 14 11 14 15 15 15 16 18 18 20 21 18 15 15 14 14 17 19 18
31 26 26 25 25 24 21 21 22 22 23 25 24 21 21 23 20 19 16 12 12 13 14 15 15 15 15 17 22 17 17 15 14 12 14 16 17 14
29 28 28 28 27 25 22 22 23 22 22 23 23 23 22 21 17 19 16 15 15 15 16 16 16 16 18 20 20 15 15 13 12 9 9 14 13 6
30 30 28 29 27 26 24 24 23 22 22 21 21 22 22 22 21 18 18 16 17 16 16 17 17 17 17 21 16 14 12 11 8 5 6 7 7 3
30 29 30 29 27 26 25 24 22 21 21 20 22 23 23 21 20 19 17 17 17 16 16 17 16 15 17 15 12 13 10 9 7 5 3 6 0 1
30 28 27 27 26 26 25 23 22 22 23 22 24 24 24 20 19 16 16 17 16 16 16 15 15 16 12 12 10 10 8 8 8 7 3 5 2 4
25 27 27 28 27 27 25 26 25 24 25 23 24 25 23 18 18 15 17 15 15 16 15 16 15 11 10 9 7 7 6 5 6 8 8 2 5 7
27 27 28 27 27 27 28 26 26 26 25 23 22 21 20 17 15 16 16 16 15 14 11 12 10 9 7 8 5 4 4 4 2 6 9 6 2 8
27 28 28 28 27 27 27 26 26 24 24 21 19 17 16 15 15 14 16 17 17 16 13 14 10 10 7 6 4 3 2 1 1 2 7 9 6 5
29 30 30 29 28 29 29 27 26 24 23 21 20 18 18 15 16 18 22 19 20 15 13 13 10 8 7 6 5 3 2 2 0 0 3 7 9 10
31 32 32 31 30 30 29 27 26 23 21 20 20 19 21 19 21 19 21 19 19 13 14 15 11 9 6 6 5 4 3 2 2 1 1 2 6 9
33 34 33 33 32 31 31 28 25 19 18 20 20 20 21 23 20 20 21 18 16 13 9 16 12 11 7 7 5 4 3 3 3 3 3 3 3 5
34 33 33 31 30 29 28 26 22 23 22 22 21 22 22 21 19 18 18 17 16 15 14 13 11 11 9 6 5 4 3 3 4 5 6 6 5 5
32 33 33 29 29 29 29 28 25 28 25 25 25 23 19 18 19 18 18 16 16 17 17 15 14 12 10 8 6 5 4 3 4 5 7 8 9 9
31 31 32 32 30 31 29 30 32 29 26 25 22 20 21 20 19 17 16 16 17 18 18 16 16 13 12 9 8 7 5 3 3 4 5 7 8 8
32 31 32 34 32 32 32 32 34 31 28 26 24 24 22 21 20 18 18 18 19 18 17 17 18 15 13 11 9 8 6 5 5 6 7 8 9 9
32 33 35 36 36 35 35 35 34 32 27 26 26 25 23 22 21 21 21 20 19 17 17 18 18 16 15 13 11 9 8 8 7 7 8 8 10 10
30 33 36 36 39 36 34 33 35 35 26 27 27 24 22 21 22 23 22 21 19 19 18 17 19 19 17 14 12 10 10 10 10 9 10 11 12 12
33 33 39 40 35 36 32 33 32 31 26 29 27 24 22 22 24 24 23 22 19 18 18 19 20 19 17 14 14 13 12 12 12 12 11 11 11 13
29 33 34 36 33 31 29 28 28 29 26 28 27 25 24 24 24 23 21 20 18 18 20 19 13 14 18 18 17 14 11 12 13 12 12 12 12 13
26 29 32 33 30 25 23 24 25 27 28 30 28 25 24 24 24 23 21 21 20 21 17 13 15 19 19 18 15 14 13 14 15 14 14 14 13 9
19 23 24 26 27 25 24 23 24 25 26 26 29 25 24 25 24 23 21 20 20 20 18 17 18 18 17 16 17 18 17 16 17 18 16 15 16 16
Wind_Direction
248 251 255 251 249 249 251 248 250 251 255 255 255 263 265 267 274 282 279 267 257 260 263 268 276 286 289 294 304 307 300 294 289 282 282 284 281 271
247 244 248 241 242 241 240 246 258 258 260 260 259 261 263 269 277 286 284 272 266 264 264 275 283 285 289 296 305 302 296 295 289 287 284 287 289 275
252 246 247 242 241 240 245 258 262 262 263 256 258 259 261 270 276 287 289 269 269 271 272 274 282 281 287 298 304 295 294 297 289 288 290 299 294 281
244 246 239 241 239 242 251 255 256 259 258 259 256 261 271 276 267 277 276 274 272 273 273 278 276 280 288 303 298 297 296 297 289 286 311 317 319 293
244 238 240 240 239 247 252 255 257 258 259 258 261 263 260 262 268 266 268 271 272 273 272 271 271 279 286 293 293 296 297 295 284 276 316 322 321 278
247 238 238 240 243 252 253 256 258 258 257 259 258 263 262 259 259 260 264 265 265 265 265 266 272 277 284 285 297 297 299 294 270 227 292 344 205 289
249 242 242 243 246 250 252 256 258 262 260 260 257 258 260 259 258 259 260 256 255 254 255 259 266 272 278 286 291 292 299 282 263 219 221 32 217 194
247 246 247 249 252 252 261 254 261 261 265 265 266 256 253 254 247 247 248 247 245 250 251 262 263 263 270 276 276 291 289 282 265 235 214 186 66 90
251 250 250 249 252 254 254 258 261 263 265 263 260 253 248 243 241 240 246 242 243 245 246 252 256 259 255 259 272 286 320 326 285 240 226 226 127 85
252 250 251 251 252 253 252 254 254 253 255 259 254 250 244 235 231 235 242 240 241 239 244 252 249 246 238 244 244 251 269 323 354 238 229 225 207 158
257 255 255 253 249 249 251 251 248 247 249 246 241 243 241 229 226 225 231 229 244 246 236 245 239 231 226 226 224 216 211 229 268 322 231 231 226 211
255 251 251 251 252 253 249 246 245 246 247 237 237 236 238 228 226 226 234 235 237 241 236 229 229 215 215 214 218 216 222 224 237 248 241 218 219 218
258 255 252 252 248 249 248 242 244 247 238 230 228 231 230 233 229 227 230 229 227 221 239 220 223 210 196 175 180 191 206 225 225 230 229 228 209 201
262 259 256 254 253 250 243 240 233 235 233 228 228 226 224 225 223 220 220 219 218 213 220 219 219 206 201 193 195 190 193 215 237 236 234 229 232 223
264 263 258 252 250 244 241 239 232 232 231 226 225 226 223 221 218 215 215 214 213 213 218 214 207 200 200 189 188 199 207 221 239 246 240 239 239 237
262 262 259 251 242 244 238 232 232 232 229 230 228 223 220 217 214 212 211 212 211 214 214 212 204 206 204 197 195 197 200 214 217 244 246 243 238 235
262 261 255 250 241 235 232 228 229 228 224 225 223 222 221 218 215 214 212 213 213 214 213 210 208 213 213 209 205 206 210 227 251 256 253 249 244 239
261 255 253 248 242 235 229 223 223 227 224 227 225 223 223 220 216 215 214 217 215 213 214 215 218 221 221 220 220 226 231 240 248 257 256 249 248 245
257 255 254 248 246 237 232 227 225 228 217 227 228 226 221 217 217 217 218 219 215 213 215 219 224 225 226 228 236 235 237 245 254 255 264 257 246 246
254 256 251 251 247 242 237 233 231 226 215 225 226 223 219 216 217 216 217 220 218 219 220 223 227 230 236 240 239 240 241 252 251 266 276 267 254 249
255 255 252 252 248 244 237 237 239 229 214 226 224 221 218 217 220 220 221 222 221 221 228 228 232 228 227 233 237 238 248 249 253 265 272 269 263 259
264 260 256 256 252 246 242 238 237 233 222 218 222 223 222 221 223 225 223 222 223 228 232 232 221 229 234 241 244 244 252 253 254 263 269 267 265 257
276 270 264 259 252 245 239 233 232 230 227 220 209 215 221 222 223 225 226 226 229 229 225 224 223 229 239 246 248 245 250 252 255 264 269 266 263 261